User: anonymous   Login
Location: Unspecified
(38.3360°N, 0.0000°E)
Time: 17:59:47
(UTC+00:00)
Language:

Envisat - Orbit

View from above orbital plane
View from above orbital plane
View from above satellite
View from above satellite

Ground track
Ground track

The orbit data is extracted from the following two-line orbital elements,

1 27386U 02009A   19167.52260358  .00000003  00000-0  14428-4 0  9998
2 27386  98.1490 188.6604 0001271  93.6165  24.2797 14.37950769905885
Epoch (UTC): 16 June 2019 12:32:32
Eccentricity: 0.0001271
inclination: 98.1490°
perigee height: 764 km
apogee height: 766 km
right ascension of ascending node: 188.6604°
argument of perigee: 93.6165°
revolutions per day: 14.37950769
mean anomaly at epoch: 24.2797°
orbit number at epoch: 90588

The dashed part of the orbit path shows where the satellite is in the earth's shadow,  

DLR